Location: Barnston
(51.8500°N, 0.4000°E)
Time: 19:41:12
(UTC+00:00)

NOSS 2-2 (C) - Pass Details

Date: 26 September 2023
Orbit: 413 x 1757 km, 63.3° (Epoch: 01 December)

Event Time Altitude Azimuth Distance (km) Brightness Sun altitude
Exits shadow 03:19:23 46° 304° (NW) 916 4.2 -23.1°
Maximum altitude 03:20:46 79° 227° (SW) 752 3.7 -22.9°
Drops below altitude 10° 03:26:51 10° 142° (SE) 2,695 6.9 -22.1°
Sets 03:29:55 0° 141° (SE) 3,878 7.8 -21.7°
